This demonstration page uses our WeatherBlox Daily Observations layout. Learn more.

Left ArrowRight Arrow

Hourly Observations for March 3, 2020

Temp ( °F °C ) Dew Point ( °F °C ) Humidity (%) Winds ( mph kmh ) Pressure ( in mb ) Visibility ( mi km ) Precip ( " mm )
12:56 am 00:56 Clear 34 1.1 21 -6.1 59 59 WNW 12 19 29.80 1009 10 16 0.00 0.00
1:56 am 01:56 Clear 34 1.1 21 -6.1 59 59 W 7 11 29.81 1010 10 16 0.00 0.00
2:56 am 02:56 Clear 36 2.2 21 -6.1 55 55 WSW 8 13 29.80 1009 10 16 0.00 0.00
3:56 am 03:56 Clear 33 0.6 22 -5.6 64 64 W 8 13 29.81 1009 10 16 0.00 0.00
4:56 am 04:56 Clear 34 1.1 23 -5 64 64 WNW 12 19 29.81 1010 10 16 0.00 0.00
5:56 am 05:56 Clear 33 0.6 23 -5 66 66 W 12 19 29.83 1010 10 16 0.00 0.00
6:56 am 06:56 Clear 32 0 24 -4.4 73 73 WNW 8 13 29.85 1011 10 16 0.00 0.00
7:56 am 07:56 Sunny 33 0.6 25 -3.9 72 72 WNW 9 15 29.86 1011 10 16 0.00 0.00
8:56 am 08:56 Sunny 39 3.9 28 -2.2 65 65 WNW 9 15 29.85 1011 10 16 0.00 0.00
9:56 am 09:56 Sunny 45 7.2 28 -2.2 52 52 W 13 20 29.86 1011 10 16 0.00 0.00
10:56 am 10:56 Sunny 48 8.9 27 -2.8 44 44 WNW 15 24 29.85 1011 10 16 0.00 0.00
11:56 am 11:56 Sunny 52 11.1 23 -5 32 32 WNW 18 30 29.83 1010 10 16 0.00 0.00
12:56 pm 12:56 Sunny 56 13.3 20 -6.7 24 24 W 16 26 29.79 1009 10 16 0.00 0.00
1:56 pm 13:56 Sunny 58 14.4 22 -5.6 25 25 W 17 28 29.76 1008 10 16 0.00 0.00
2:56 pm 14:56 Sunny 59 15 25 -3.9 27 27 SW 18 30 29.74 1007 10 16 0.00 0.00
3:56 pm 15:56 Mostly Cloudy 61 16.1 24 -4.4 24 24 W 15 24 29.74 1007 10 16 0.00 0.00
4:56 pm 16:56 Mostly Cloudy 60 15.6 22 -5.6 23 23 W 16 26 29.75 1008 10 16 0.00 0.00
5:56 pm 17:56 Cloudy 59 15 23 -5 25 25 W 21 33 29.78 1008 10 16 0.00 0.00
6:56 pm 18:56 Cloudy 58 14.4 24 -4.4 27 27 W 8 13 29.81 1009 10 16 0.00 0.00
7:56 pm 19:56 Cloudy 55 12.8 26 -3.3 33 33 NW 17 28 29.85 1011 10 16 0.00 0.00
8:56 pm 20:56 Clear 48 8.9 26 -3.3 42 42 NW 13 20 29.90 1012 10 16 0.00 0.00
9:56 pm 21:56 Clear 42 5.6 27 -2.8 55 55 NW 9 15 29.93 1014 10 16 0.00 0.00
10:56 pm 22:56 Clear 42 5.6 31 -0.6 65 65 WNW 13 20 29.98 1015 10 16 0.00 0.00
11:56 pm 23:56 Clear 41 5 30 -1.1 65 65 WNW 12 19 30.00 1016 10 16 0.00 0.00

Powered by AerisWeather